Main page
METAR-TAF:

METAR-TAF

Airports :

Jask, Iran

latitude: 26-38N, longitude: 057-46E, elevation: 3 m

Current weather observation

The report was made 50 minutes ago, at 21:00 UTC
Wind 4 kt from the West
Temperature 32°C
Humidity 71%
Pressure 996 hPa
Visibility: 6000 m

METAR: OIZJ 172100Z 28004KT 6000 NSC 32/26 Q0996

Time: 02:20 (21:50 UTC)


TAF: missing

Weather observations and forecasts of more than 4000 airports (METAR and TAF reports).

The available stations are represented by yellow and red dots on the map.

Hover mouse over dot to see the name of the station.

Then click to see weather observations and forecasts.

To change the map : click on the green buttons with a black cross to zoom in, on the green button with a dash to zoom out, or on the green arrows for adjacent maps.


METAR-TAF: